{"data":{"norad_id":69010,"intl_designator":"2026-100AG","name":"DRISHTI","alt_names":[],"object_type":"PAYLOAD","status":"ACTIVE","operator":null,"country":"IND","launch_date":"2026-05-03","launch_site_code":"AFWTR","launch_vehicle":null,"mission":null,"orbit_class":"UNKNOWN","rcs_meters":null,"size_class":null,"mass_kg":null,"dimensions":null,"purposes":[],"wikipedia_slug":null,"has_3d_model":false,"image_url":null,"decayed_at":null,"tle_current":{"epoch":"2026-09-19T10:49:13.965312Z","epoch_age_seconds":109683,"freshness":"FRESH","line1":"1 69010U 26100AG  26262.45085608  .00001735  00000+0  81678-4 0  9998","line2":"2 69010  97.3905 158.5387 0006878  65.9837 294.2118 15.20835451 21133","mean_motion":15.20835451,"eccentricity":0.0006878,"inclination_deg":97.3905,"raan_deg":158.5387,"arg_perigee_deg":65.9837,"mean_anomaly_deg":294.2118,"bstar":8.1678e-5,"rev_number":2113,"period_min":94.684799664103,"perigee_km":498.58623537001,"apogee_km":508.05236665768,"semimajor_km":6881.4563010138,"source":"CELESTRAK","updated_at":"2026-09-20T09:00:24.628518Z"}}}